[[{"header":{"parameterUnit":"m.s-1","parameterCategory":1,"la1":30.2991,"la2":30.254,"lo1":-89.0895,"lo2":-89.0444,"dy":0.0017,"dx":0.0017,"nx":28,"ny":28,"refTime":"2025-12-15T03:00:00:Z","depth":0,"parameterNumber":2,"parameterNumberName":"U-component_of_WINDS"},"data":[0,0,0,0,0,0,0,0,0,0,0,0,0,0,0,0,0,0,0,0,0,0,0,0,0,0,0,0,0,0,0,0,0,0,0,0,0,0,0,0,0,0,0,0,0,0,0,0,0,0,0,0,0,0,0,0,0,0,-2.6137,-2.6137,0,-2.6191,-2.6192,-2.6193,-2.6134,-2.6132,-2.613,-2.6128,-2.6183,-2.6187,-2.619,0,0,0,0,0,0,0,0,0,0,0,0,0,-2.598,-2.5983,-2.6137,-2.6137,-2.6138,-2.6191,-2.6192,-2.6193,-2.6135,-2.6132,-2.6129,-2.6127,-2.6182,-2.6186,-2.6191,0,0,0,0,0,0,0,0,0,0,0,0,0,-2.6043,-2.5984,-2.6137,-2.6116,-2.6114,-2.6191,-2.6192,-2.6193,-2.6135,-2.6132,-2.6128,-2.6125,-2.6181,-2.6186,-2.6191,-2.6292,0,0,-2.6207,-2.621,0,0,0,0,0,0,0,0,-2.6039,-2.6049,-2.6118,-2.6117,-2.6116,-2.6153,-2.6157,-2.6226,-2.6136,-2.6127,-2.6128,-2.6124,-2.6176,-2.6181,-2.6199,-2.6294,-2.6297,-2.6208,-2.6211,-2.6214,-2.6215,0,0,0,0,0,0,0,-2.6035,-2.6046,-2.6158,-2.6119,-2.6118,-2.6103,-2.6108,-2.617,-2.617,-2.6128,-2.6124,-2.6131,-2.6174,-2.6194,-2.62,-2.6297,-2.6208,-2.6213,-2.6216,-2.6218,-2.6475,-2.6478,0,0,0,0,0,0,-2.6033,-2.6043,-2.6157,-2.616,-2.6068,-2.6108,-2.6114,-2.6144,-2.6169,-2.6169,-2.6134,-2.6128,-2.6186,-2.6194,-2.6202,-2.6319,-2.6213,-2.6219,-2.6222,-2.6471,-2.6475,-2.6479,0,0,0,0,0,0,-2.603,-2.6044,-2.6154,-2.61,-2.6113,-2.6114,-2.6149,-2.6147,-2.6166,-2.6173,-2.6173,-2.6154,-2.6184,-2.6194,-2.6269,-2.632,-2.6221,-2.6226,-2.6467,-2.6472,-2.6477,-2.6555,0,0,0,0,0,0,-2.6026,-2.6043,-2.6082,-2.6102,-2.6116,-2.6222,-2.6152,-2.6151,-2.6176,-2.6169,-2.6192,-2.6193,-2.6182,-2.6261,-2.6274,-2.6325,-2.623,-2.6462,-2.6469,-2.6476,-2.6548,-2.6562,-2.6575,0,0,0,0,0,-2.602,-2.6102,-2.6084,-2.6098,-2.6165,-2.6225,-2.6233,-2.622,-2.618,-2.6219,-2.6223,-2.6192,-2.6312,-2.6269,-2.6284,-2.6337,-2.6459,-2.6467,-2.6475,-2.6542,-2.656,-2.6575,0,0,0,0,0,0,-2.6089,-2.6104,-2.6085,-2.6175,-2.6199,-2.6215,-2.6263,-2.6239,-2.6275,-2.6267,-2.6248,-2.6254,-2.6333,-2.6343,-2.6295,-2.6434,-2.6379,-2.639,-2.6425,-2.6442,-2.6455,-2.645,-2.6234,0,0,0,0,0,-2.6115,-2.6163,-2.6173,-2.6252,-2.6265,-2.6262,-2.6288,-2.6275,-2.6299,-2.6309,-2.6319,-2.6343,-2.6385,-2.6414,-2.6455,-2.6549,-2.6552,-2.6593,-2.6606,-2.6617,-2.6627,-2.6675,-2.6693,-2.6506,-2.6506,-2.6506,0,0,-2.6168,-2.6183,-2.6214,-2.6266,-2.6283,-2.6332,-2.6271,-2.6326,-2.6362,-2.6317,-2.6388,-2.6396,-2.6421,-2.6506,-2.6544,-2.6517,-2.6679,-2.6628,-2.6636,-2.664,-2.6685,-2.6703,-2.6719,-2.6512,-2.6511,-2.651,0,0,-2.6291,-2.6307,-2.6373,-2.6391,-2.6417,-2.6415,-2.6431,-2.645,-2.6453,-2.6524,-2.649,-2.6532,-2.6608,-2.6626,-2.6646,-2.6773,-2.6745,-2.6786,-2.6856,-2.6904,-2.6918,-2.6931,-2.6974,-2.699,-2.6796,-2.6796,-2.6797,0,-2.6354,-2.6427,-2.6411,-2.6467,-2.649,-2.6452,-2.6518,-2.6536,-2.6574,-2.659,-2.6559,-2.6651,-2.6666,-2.6753,-2.6783,-2.6801,-2.6817,-2.6783,-2.6918,-2.693,-2.6942,-2.6983,-2.7,-2.6801,-2.6801,-2.68,-2.68,0,-2.6502,-2.6553,-2.6603,-2.664,-2.6669,-2.6731,-2.6722,-2.6753,-2.6738,-2.6738,-2.6809,-2.6825,-2.6867,-2.6887,-2.6873,-2.6971,-2.6953,-2.6921,-2.6864,-2.6965,-2.7003,-2.7019,-2.6808,-2.6806,-2.6805,-2.6804,0,0,-2.667,-2.6695,-2.6714,-2.6729,-2.6754,-2.6793,-2.6852,-2.6892,-2.6918,-2.6945,-2.6993,-2.7056,-2.7025,-2.7047,-2.7034,-2.7076,-2.7173,-2.7038,-2.7038,-2.7061,-2.728,-2.7304,-2.7322,-2.7155,-2.7158,-2.716,-2.7277,0,-2.6791,-2.6893,-2.6879,-2.6976,-2.7022,-2.6985,-2.7035,-2.7056,-2.7057,-2.7095,-2.7097,-2.7141,-2.7098,-2.711,-2.715,-2.7153,-2.7216,-2.7144,-2.7197,-2.72,-2.7191,-2.7342,-2.7368,-2.7478,-2.7292,-2.7295,-2.7297,0,-2.6946,-2.6978,-2.708,-2.7095,-2.7114,-2.716,-2.7194,-2.7232,-2.7253,-2.7251,-2.7275,-2.7254,-2.7311,-2.7255,-2.7333,-2.7284,-2.7305,-2.7309,-2.7313,-2.7316,-2.7253,-2.7348,-2.7513,-2.7528,-2.732,-2.7319,-2.7317,0,-2.7056,-2.7124,-2.7193,-2.7207,-2.7228,-2.7261,-2.7271,-2.7289,-2.7313,-2.7343,-2.7359,-2.7395,-2.7415,-2.7443,-2.7432,-2.7393,-2.7511,-2.7455,-2.7509,-2.751,-2.7535,-2.7534,-2.7704,-2.7552,-2.7552,-2.7551,-2.7551,0,-2.7192,-2.7255,-2.7242,-2.7284,-2.7353,-2.7336,-2.7405,-2.741,-2.7427,-2.7468,-2.7439,-2.7479,-2.7463,-2.7501,-2.7493,-2.7557,-2.7567,-2.7565,-2.7562,-2.7567,-2.7567,-2.7579,-2.7571,-2.7556,-2.7555,-2.7554,-2.7553,0,-2.7325,-2.732,-2.7392,-2.7405,-2.741,-2.746,-2.747,-2.7509,-2.7508,-2.7561,-2.7572,-2.757,-2.7613,-2.7605,-2.7654,-2.7648,-2.7727,-2.7716,-2.772,-2.7717,-2.7771,-2.7765,-2.7954,-2.7977,-2.7812,-2.7814,-2.7815,0,-2.7412,-2.7459,-2.7477,-2.7503,-2.7515,-2.7557,-2.7581,-2.7566,-2.7592,-2.7619,-2.7654,-2.7695,-2.7726,-2.7797,-2.7799,-2.7835,-2.7823,-2.7886,-2.7828,-2.7831,-2.7821,-2.7818,-2.7821,-2.7898,-2.7899,-2.7901,-2.7902,0,-2.7565,-2.7559,-2.7595,-2.763,-2.7659,-2.7686,-2.771,-2.7732,-2.7719,-2.775,-2.7793,-2.7818,-2.7866,-2.7906,-2.7939,-2.7948,-2.7923,-2.7921,-2.7935,-2.794,-2.7939,-2.7938,-2.775,-2.7916,-2.7915,-2.7914,-2.7913,-2.7912,-2.7676,-2.7716,-2.7734,-2.7774,-2.779,-2.7812,-2.7849,-2.7851,-2.7888,-2.7925,-2.7914,-2.7963,-2.7981,-2.8023,-2.8036,-2.8073,-2.8049,-2.8071,-2.8076,-2.8081,-2.8086,-2.7935,-2.8079,-2.8079,-2.8079,-2.8078,-2.8078,0,-2.7826,-2.7835,-2.7873,-2.7906,-2.7937,-2.7911,-2.7935,-2.7963,-2.8006,-2.8025,-2.8056,-2.8105,-2.8143,-2.8148,-2.8184,-2.8212,-2.8201,-2.8222,-2.8219,-2.8221,-2.8107,-2.809,-2.823,-2.823,-2.823,-2.823,-2.823,-2.823,-2.7908,-2.7972,-2.7968,-2.804,-2.8048,-2.8096,-2.8112,-2.8131,-2.8146,-2.8202,-2.8233,-2.8236,-2.8249,-2.8284,-2.8318,-2.8318,-2.8331,-2.8356,-2.8352,-2.8245,-2.8229,-2.8215,-2.8199,-2.836,-2.836,-2.8463,-2.8464,-2.8464]},{"header":{"parameterUnit":"m.s-1","parameterCategory":1,"la1":30.2991,"la2":30.254,"lo1":-89.0895,"lo2":-89.0444,"dy":0.0017,"dx":0.0017,"nx":28,"ny":28,"refTime":"2025-12-15T03:00:00:Z","depth":0,"parameterNumber":3,"parameterNumberName":"V-component_of_WINDS"},"data":[0,0,0,0,0,0,0,0,0,0,0,0,0,0,0,0,0,0,0,0,0,0,0,0,0,0,0,0,0,0,0,0,0,0,0,0,0,0,0,0,0,0,0,0,0,0,0,0,0,0,0,0,0,0,0,0,0,0,-2.9478,-2.9478,0,-2.951,-2.9511,-2.9511,-2.948,-2.9479,-2.9478,-2.9477,-2.9508,-2.9509,-2.9511,0,0,0,0,0,0,0,0,0,0,0,0,0,-2.9386,-2.9388,-2.9478,-2.9478,-2.9479,-2.951,-2.9511,-2.9511,-2.9481,-2.9479,-2.9478,-2.9476,-2.9507,-2.9509,-2.9512,0,0,0,0,0,0,0,0,0,0,0,0,0,-2.9423,-2.9388,-2.9478,-2.9467,-2.9467,-2.951,-2.9511,-2.9511,-2.9481,-2.9479,-2.9477,-2.9475,-2.9506,-2.9509,-2.9512,-2.9567,0,0,-2.9521,-2.9522,0,0,0,0,0,0,0,0,-2.9421,-2.9426,-2.9468,-2.9468,-2.9467,-2.9489,-2.949,-2.953,-2.9481,-2.9475,-2.9477,-2.9475,-2.9503,-2.9506,-2.9516,-2.9568,-2.9569,-2.9521,-2.9523,-2.9524,-2.9525,0,0,0,0,0,0,0,-2.9418,-2.9424,-2.9491,-2.9469,-2.9468,-2.946,-2.9463,-2.9497,-2.9499,-2.9476,-2.9474,-2.9478,-2.9502,-2.9513,-2.9516,-2.957,-2.9521,-2.9524,-2.9525,-2.9527,-2.9666,-2.9668,0,0,0,0,0,0,-2.9417,-2.9423,-2.949,-2.9492,-2.9439,-2.9463,-2.9466,-2.9484,-2.9498,-2.9499,-2.948,-2.9476,-2.9509,-2.9513,-2.9517,-2.958,-2.9524,-2.9527,-2.9529,-2.9664,-2.9666,-2.9669,0,0,0,0,0,0,-2.9415,-2.9423,-2.9488,-2.9457,-2.9464,-2.9466,-2.9487,-2.9486,-2.9497,-2.9501,-2.9501,-2.9491,-2.9508,-2.9513,-2.9554,-2.9581,-2.9528,-2.9531,-2.9662,-2.9665,-2.9668,-2.9708,0,0,0,0,0,0,-2.9413,-2.9423,-2.9445,-2.9457,-2.9466,-2.9526,-2.9488,-2.9488,-2.9502,-2.9498,-2.9512,-2.9512,-2.9507,-2.955,-2.9557,-2.9584,-2.9533,-2.9659,-2.9663,-2.9667,-2.9705,-2.9712,-2.9719,0,0,0,0,0,-2.941,-2.9455,-2.9446,-2.9454,-2.9493,-2.9527,-2.9532,-2.9526,-2.9505,-2.9526,-2.9528,-2.9512,-2.9578,-2.9555,-2.9562,-2.9591,-2.9658,-2.9662,-2.9666,-2.9701,-2.9711,-2.9719,0,0,0,0,0,0,-2.9445,-2.9456,-2.9447,-2.9498,-2.9512,-2.9522,-2.9549,-2.9536,-2.9556,-2.9552,-2.9542,-2.9546,-2.9588,-2.9594,-2.9568,-2.9643,-2.9614,-2.962,-2.9638,-2.9647,-2.9654,-2.9651,-2.9536,0,0,0,0,0,-2.9459,-2.9486,-2.9495,-2.9539,-2.9546,-2.9546,-2.9561,-2.9555,-2.9569,-2.9574,-2.958,-2.9594,-2.9617,-2.9633,-2.9655,-2.9706,-2.9707,-2.9729,-2.9736,-2.9742,-2.9747,-2.9772,-2.9781,-2.9683,-2.9683,-2.9683,0,0,-2.9487,-2.9497,-2.9515,-2.9546,-2.9556,-2.9584,-2.9552,-2.9582,-2.9602,-2.9579,-2.9617,-2.9622,-2.9636,-2.9682,-2.9703,-2.9688,-2.9774,-2.9748,-2.9752,-2.9754,-2.9777,-2.9787,-2.9795,-2.9686,-2.9685,-2.9685,0,0,-2.9553,-2.9564,-2.9601,-2.9612,-2.9628,-2.9627,-2.9636,-2.9648,-2.9651,-2.969,-2.9672,-2.9695,-2.9736,-2.9746,-2.9757,-2.9825,-2.981,-2.9833,-2.9869,-2.9894,-2.9902,-2.9909,-2.9931,-2.9939,-2.9838,-2.9838,-2.9838,0,-2.9586,-2.9628,-2.9621,-2.9653,-2.9666,-2.9647,-2.9683,-2.9694,-2.9716,-2.9725,-2.9709,-2.9759,-2.9767,-2.9814,-2.983,-2.984,-2.9848,-2.983,-2.9901,-2.9908,-2.9914,-2.9935,-2.9944,-2.9841,-2.984,-2.984,-2.984,0,-2.9666,-2.9695,-2.9723,-2.9745,-2.9761,-2.9795,-2.9793,-2.981,-2.9802,-2.9803,-2.9842,-2.9851,-2.9874,-2.9885,-2.9878,-2.993,-2.992,-2.9903,-2.9873,-2.9926,-2.9946,-2.9954,-2.9844,-2.9843,-2.9842,-2.9842,0,0,-2.9754,-2.9772,-2.9782,-2.9791,-2.9807,-2.9828,-2.9861,-2.9883,-2.9897,-2.9913,-2.9938,-2.9973,-2.9957,-2.9969,-2.9963,-2.9985,-3.0035,-2.9965,-2.9965,-2.9975,-3.0091,-3.0102,-3.0112,-3.0026,-3.0028,-3.0029,-3.0089,0,-2.9818,-2.9875,-2.987,-2.9923,-2.9948,-2.993,-2.9958,-2.997,-2.9971,-2.9992,-2.9993,-3.0017,-2.9995,-3.0002,-3.0023,-3.0025,-3.0058,-3.0021,-3.0048,-3.0049,-3.0043,-3.0122,-3.0135,-3.0191,-3.0097,-3.0098,-3.0099,0,-2.9901,-2.9919,-2.9975,-2.9985,-2.9996,-3.0021,-3.004,-3.0061,-3.0074,-3.0073,-3.0086,-3.0076,-3.0106,-3.0077,-3.0118,-3.0093,-3.0104,-3.0106,-3.0108,-3.0109,-3.0076,-3.0123,-3.0209,-3.0216,-3.0111,-3.011,-3.011,0,-2.9956,-2.9996,-3.0033,-3.0042,-3.0055,-3.0073,-3.0079,-3.009,-3.0104,-3.0121,-3.0129,-3.0149,-3.0159,-3.0175,-3.0169,-3.0149,-3.0211,-3.0182,-3.0209,-3.0209,-3.0221,-3.022,-3.0308,-3.0232,-3.0232,-3.0232,-3.0232,0,-3.0027,-3.0061,-3.0058,-3.0081,-3.0118,-3.0111,-3.0148,-3.0152,-3.0162,-3.0184,-3.017,-3.0191,-3.0184,-3.0204,-3.0201,-3.0234,-3.0239,-3.0238,-3.0236,-3.0238,-3.0238,-3.0243,-3.0239,-3.0234,-3.0234,-3.0233,-3.0233,0,-3.0095,-3.0094,-3.0134,-3.0144,-3.0147,-3.0173,-3.0181,-3.0202,-3.0202,-3.0231,-3.0237,-3.0237,-3.026,-3.0257,-3.0283,-3.028,-3.0321,-3.0315,-3.0316,-3.0314,-3.0341,-3.0338,-3.0434,-3.0445,-3.0364,-3.0365,-3.0366,0,-3.0139,-3.0165,-3.0177,-3.0191,-3.0199,-3.0222,-3.0235,-3.023,-3.0244,-3.026,-3.0278,-3.03,-3.0317,-3.0354,-3.0356,-3.0375,-3.0369,-3.0401,-3.0371,-3.0372,-3.0366,-3.0364,-3.0366,-3.0406,-3.0407,-3.0408,-3.0409,0,-3.0216,-3.0215,-3.0235,-3.0255,-3.0271,-3.0287,-3.0301,-3.0313,-3.0308,-3.0325,-3.0348,-3.0362,-3.0388,-3.0409,-3.0426,-3.0432,-3.0419,-3.0418,-3.0425,-3.0426,-3.0425,-3.0424,-3.033,-3.0416,-3.0415,-3.0414,-3.0414,-3.0414,-3.0272,-3.0293,-3.0305,-3.0327,-3.0337,-3.035,-3.0369,-3.0372,-3.0392,-3.0413,-3.0409,-3.0434,-3.0445,-3.0468,-3.0475,-3.0494,-3.0482,-3.0493,-3.0495,-3.0497,-3.0499,-3.0424,-3.0498,-3.0498,-3.0497,-3.0497,-3.0497,0,-3.0346,-3.0353,-3.0374,-3.0394,-3.0411,-3.0399,-3.0413,-3.0428,-3.0451,-3.0462,-3.0479,-3.0505,-3.0526,-3.0529,-3.0548,-3.0563,-3.0557,-3.0568,-3.0565,-3.0566,-3.051,-3.0501,-3.0572,-3.0572,-3.0572,-3.0572,-3.0572,-3.0572,-3.0387,-3.0421,-3.0421,-3.046,-3.0466,-3.0491,-3.05,-3.0512,-3.052,-3.055,-3.0567,-3.057,-3.0577,-3.0596,-3.0614,-3.0614,-3.0621,-3.0633,-3.0631,-3.0578,-3.0571,-3.0563,-3.0555,-3.0635,-3.0635,-3.0685,-3.0686,-3.0686]}]]